Location: *
(51.1248°S, 108.4023°W)
Time: 19:58:45
(UTC+00:00)

USA 281 - Pass Details

Date: 27 October 2021
Orbit: 1078 x 1081 km, 106.0° (Epoch: 25 November)

Event Time Altitude Azimuth Distance (km) Brightness Sun altitude
Exits shadow 04:20:13 - 346° (NNW) 3,311 5.4 -17.5°
Reaches altitude 10° 04:21:25 10° 341° (NNW) 2,927 5.2 -17.6°
Maximum altitude 04:27:01 29° 282° (WNW) 1,878 4.7 -18.2°
Drops below altitude 10° 04:32:42 10° 224° (SW) 2,956 6.8 -18.7°
Sets 04:35:39 0° 212° (SSW) 3,919 7.8 -19.0°
